User: anonymous   Login
Location: Poughquag
(41.6090°N, 73.6820°W)
Time: 23:18:34
(UTC-04:00)
Language:

LilacSat-2 - Orbit

View from above orbital plane
View from above orbital plane
View from above satellite
View from above satellite

Ground track
Ground track

The orbit data is extracted from the following two-line orbital elements,

1 40908U 15049K   24194.82243876  .00009852  00000-0  37507-3 0  9999
2 40908  97.5236 203.7242 0010215 256.2351 103.7751 15.26901491487403
Epoch (UTC): 12 July 2024 19:44:18
Eccentricity: 0.0010215
inclination: 97.5236°
perigee height: 478 km
apogee height: 492 km
right ascension of ascending node: 203.7242°
argument of perigee: 256.2351°
revolutions per day: 15.26901491
mean anomaly at epoch: 103.7751°
orbit number at epoch: 48740

The dashed part of the orbit path shows where the satellite is in the earth's shadow,  

DLR